Regional Weather Roundup
Issued by NWS

Home | Current Version | Previous Version | Text Only | Print | Product List | Glossary On
Versions: 1 2 3 4 5 6 7 8 9 10 11 12 13 14 15 16 17 18 19 20 21 22 23 24 25 26 27
000
ASUS44 KBMX 261210
RWRAL

ALABAMA REGIONAL WEATHER ROUNDUP
NATIONAL WEATHER SERVICE BIRMINGHAM AL
700 AM CDT WED JUL 26 2017

NOTE: "FAIR" INDICATES FEW OR NO CLOUDS BELOW 12,000 FEET
WITH NO SIGNIFICANT WEATHER AND/OR OBSTRUCTIONS TO VISIBILITY.

THE REMARK "TC" DENOTES TEMPERATURE IN DEGREES CELSIUS.

ALZ001>011-014-016>018-020-261300-
NORTH ALABAMA

CITY           SKY/WX    TMP DP  RH WIND       PRES   REMARKS
MUSCLE SHOALS  SUNNY     76  72  87 SW3       30.13S
6HR MIN TEMP:  73; 6HR MAX TEMP:  76;

HUNTSVILLE     PTSUNNY   76  76 100 SE5       30.12S
6HR MIN TEMP:  75; 6HR MAX TEMP:  77;

DECATUR        PTSUNNY   74  74 100 CALM      30.13R
6HR MIN TEMP:  72; 6HR MAX TEMP:  74;

HALEYVILLE     NOT AVBL
GADSDEN        SUNNY     72  71  97 CALM      30.14S
6HR MIN TEMP:  70; 6HR MAX TEMP:  73;

$$

ALZ012-013-022-023-030>036-040>044-261300-
WEST CENTRAL ALABAMA

CITY           SKY/WX    TMP DP  RH WIND       PRES   REMARKS
TUSCALOOSA     MOSUNNY   77  77 100 CALM      30.12R FOG
6HR MIN TEMP:  75; 6HR MAX TEMP:  78;

DEMOPOLIS        N/A     74  74 100 CALM      30.12S
$$

ALZ015-024>026-033>036-041>044-261300-
CENTRAL ALABAMA

CITY           SKY/WX    TMP DP  RH WIND       PRES   REMARKS
BIRMINGHAM     MOSUNNY   78  75  90 CALM      30.15R
6HR MIN TEMP:  76; 6HR MAX TEMP:  78;

MONTGOMERY     FOG       77  73  87 NW5       30.12R VSB 1/4
6HR MIN TEMP:  75; 6HR MAX TEMP:  77;

SHELBY CO ARPT SUNNY     77  77 100 CALM      30.12S FOG
6HR MIN TEMP:  76; 6HR MAX TEMP:  77;

MAXWELL AFB    CLOUDY    75  75 100 CALM      30.11R FOG
6HR MIN TEMP:  74; 6HR MAX TEMP:  75;

GREENVILLE     CLOUDY    75  73  93 NW3       30.12R FOG
6HR MIN TEMP:  72; 6HR MAX TEMP:  76;

SELMA          CLOUDY    77  75  94 NW3       30.12R FOG
PRATTVILLE     CLOUDY    74  74 100 CALM      30.11R FOG
6HR MIN TEMP:  73; 6HR MAX TEMP:  74;

BESSEMER       FAIR      76  75  97 CALM      30.14S
6HR MIN TEMP:  74; 6HR MAX TEMP:  77;

TALLADEGA      FAIR      72  71  96 MISG      30.13S
6HR MIN TEMP:  71; 6HR MAX TEMP:  73;

PELL CITY      MOSUNNY   73  73 100 CALM      30.13R FOG
MARION         NOT AVBL
SYLACAUGA      PTSUNNY   74  74 100 CALM      30.14R FOG
6HR MIN TEMP:  72; 6HR MAX TEMP:  74;

$$

ALZ019-021-028-029-037-038-045>048-261300-
EAST CENTRAL ALABAMA

CITY           SKY/WX    TMP DP  RH WIND       PRES   REMARKS
ANNISTON       MOSUNNY   72  71  97 CALM      30.14R
6HR MIN TEMP:  71; 6HR MAX TEMP:  73;

ALEXANDER CITY MOSUNNY   73  73  98 CALM      30.13S FOG
6HR MIN TEMP:  72; 6HR MAX TEMP:  75;

AUBURN         SUNNY     74  74 100 NW5       30.14R
6HR MIN TEMP:  73; 6HR MAX TEMP:  75;

$$

ALZ051>064-261300-
SOUTHWEST ALABAMA

CITY           SKY/WX    TMP DP  RH WIND       PRES   REMARKS
MOBILE         CLOUDY    74  73  97 W3        30.14R
6HR MIN TEMP:  74; 6HR MAX TEMP:  75;

BROOKLEY FIELD CLOUDY    78  76  93 W3        30.14R
6HR MIN TEMP:  76; 6HR MAX TEMP:  78;

EVERGREEN      FOG       75  74  96 CALM      30.13R VSB 1/4
6HR MIN TEMP:  73; 6HR MAX TEMP:  76;

$$

ALZ049-050-065>069-261300-
SOUTHEAST ALABAMA

CITY           SKY/WX    TMP DP  RH WIND       PRES   REMARKS
DOTHAN         FOG       74  74 100 NW6       30.15R VSB 1/2
6HR MIN TEMP:  73; 6HR MAX TEMP:  75;

OZARK          FOG       73  72  97 CALM      30.11S VSB 3/8
6HR MIN TEMP:  72; 6HR MAX TEMP:  74;

TROY           FOG       74  74 100 NW5       30.13R VSB 1
6HR MIN TEMP:  72; 6HR MAX TEMP:  74;

EUFAULA        FAIR      77  74  90 CALM      30.10R
6HR MIN TEMP:  75; 6HR MAX TEMP:  77;

$$




USA.gov is the U.S. government's official web portal to all federal, state and local government web resources and services.